Temp
6 6 6 6 7 7 7 8 8 9 9 9 10 10 10 10 10 9 9 9 9 9 9 9 9 9 9 9 8 8 8 8 8 8 9 9 9 9 9 9 9 9 10 10 9 8 8 9 9 10 10 10 10 10 11 11 11 11 11 11 11 11 12 11 11 12 13 13 13 13 13 13 13 13 13 13 13 13 12 12 12 12 12 12 11
6 6 6 6 6 6 7 8 8 8 9 9 9 9 9 9 9 9 9 8 8 8 8 8 8 8 8 8 8 7 7 8 8 8 8 9 9 9 9 9 9 9 10 10 9 9 8 8 9 9 10 10 10 10 10 11 11 11 11 11 11 11 11 12 11 12 12 13 13 13 13 12 12 13 13 13 13 13 13 12 12 12 12 12 11
5 5 5 5 6 6 7 7 7 8 8 8 8 9 9 8 8 8 8 8 8 8 8 7 7 7 7 7 7 7 7 7 7 7 8 8 8 9 9 9 9 9 9 9 9 9 8 8 8 9 10 10 10 10 10 10 11 11 11 11 11 11 11 11 11 12 12 13 13 13 13 12 12 13 13 13 13 13 13 12 12 12 12 12 11
5 5 5 5 6 6 6 6 7 7 7 7 7 8 8 8 8 8 8 8 7 7 7 7 7 7 7 7 6 6 6 6 7 7 7 7 7 8 8 8 9 9 9 9 9 9 8 8 8 9 9 9 10 10 10 10 10 10 10 11 11 11 11 11 11 11 12 12 12 13 13 13 13 13 13 13 13 12 12 12 12 12 12 12 11
4 5 5 5 5 6 6 6 6 6 6 7 7 7 7 7 7 7 7 7 7 7 7 7 6 6 6 6 6 6 6 6 6 6 6 6 6 7 7 7 8 8 8 8 8 7 7 8 8 8 9 9 9 10 10 10 10 10 10 10 11 11 11 11 11 11 11 11 12 13 13 13 12 12 12 12 12 12 12 12 12 12 12 12 11
4 4 4 4 5 5 5 5 5 6 6 6 7 7 7 7 7 7 7 7 6 6 6 6 6 5 5 5 5 5 5 6 6 6 6 6 6 6 6 6 7 7 7 8 7 7 6 7 7 7 8 8 9 9 10 10 10 10 10 10 10 11 11 11 11 10 11 11 12 13 13 12 12 12 12 12 12 12 12 12 12 12 12 12 11
4 4 4 4 4 5 5 5 5 5 6 6 6 6 6 6 6 6 6 6 5 5 5 5 5 5 5 5 5 5 5 5 5 5 5 5 5 5 5 6 6 6 6 6 6 6 6 6 6 7 7 8 8 8 9 10 10 10 10 10 10 11 11 11 11 11 11 11 11 12 12 12 12 11 12 12 12 12 12 12 12 11 11 12 12
3 4 4 4 4 4 4 4 5 5 5 6 6 6 6 6 5 5 5 5 5 5 4 4 4 4 4 4 4 4 4 4 4 5 5 5 5 5 5 5 5 6 6 5 5 5 5 5 5 6 6 7 7 8 8 9 9 10 10 10 10 10 11 11 11 11 11 11 11 11 12 12 11 11 11 12 11 11 12 12 12 12 12 12 12
3 3 4 4 4 4 4 4 4 5 5 5 5 5 5 5 5 5 5 4 4 4 4 4 4 4 4 4 4 4 4 4 4 3 4 4 4 4 4 4 4 5 5 5 5 5 5 5 5 5 6 6 7 7 8 8 9 9 10 10 10 10 10 11 11 11 11 11 11 11 11 11 11 11 11 11 11 11 12 11 11 12 12 12 12
3 3 3 4 4 4 4 4 4 5 5 5 5 5 5 5 5 4 4 4 4 4 4 4 4 4 4 4 4 4 4 4 3 3 3 4 4 4 4 4 4 4 4 5 5 5 5 5 5 5 6 6 6 7 8 8 8 9 9 10 10 10 10 10 11 11 11 11 11 11 11 11 11 11 11 11 12 12 12 11 11 12 12 11 11
3 3 3 3 4 4 4 4 4 4 4 4 4 4 4 4 4 4 4 4 3 3 3 3 3 3 3 4 4 4 4 4 4 3 3 3 4 4 4 4 4 4 4 4 4 4 4 5 5 6 6 6 6 6 7 8 8 9 9 9 10 10 10 10 10 11 11 11 11 11 11 11 11 11 11 11 12 12 12 12 12 11 11 11 10
3 3 3 3 3 3 4 4 4 4 4 4 4 3 3 3 3 3 3 3 3 3 3 3 3 3 3 3 3 4 4 4 4 3 3 3 3 3 4 4 4 3 3 3 3 3 4 4 5 5 5 5 5 6 6 7 8 8 9 9 9 10 10 10 10 10 11 11 11 11 11 11 12 12 11 11 12 12 12 12 12 11 11 11 11
3 3 3 3 3 3 3 3 3 3 3 3 3 3 3 3 2 2 2 2 2 2 2 2 2 2 2 3 3 3 3 3 3 3 3 3 3 3 3 3 3 3 3 3 3 3 3 3 4 4 5 5 5 5 6 6 7 8 8 9 9 9 10 10 10 10 10 10 10 11 11 12 12 12 12 12 12 12 12 12 12 11 11 12 12
3 3 3 3 3 3 3 3 3 3 3 3 3 2 2 2 2 2 2 2 2 2 2 2 2 2 2 2 2 2 2 2 2 2 2 3 3 3 3 3 3 3 2 2 2 2 2 2 3 3 4 4 4 4 5 6 7 7 8 9 9 9 9 10 10 10 10 10 10 10 11 11 12 12 13 12 12 12 12 12 12 11 11 12 13
3 3 3 3 3 3 3 3 3 3 2 2 2 2 2 2 2 2 2 2 2 2 2 2 2 2 2 2 2 2 1 2 1 2 2 2 2 3 3 3 3 3 2 2 2 2 2 2 2 2 3 3 3 3 4 5 6 7 7 8 9 9 9 10 10 10 10 10 10 10 10 10 11 12 12 12 12 12 12 12 12 12 12 12 12
3 3 3 3 3 3 3 3 2 2 2 2 2 2 2 2 1 1 1 1 1 2 2 2 2 2 2 2 2 1 1 1 1 1 1 1 2 2 2 2 2 2 2 2 2 2 2 1 0 1 2 3 3 3 3 3 5 6 7 7 8 9 9 10 10 10 10 10 10 11 10 10 11 11 11 12 11 11 11 11 11 11 11 10 10
3 3 3 3 2 2 2 2 2 2 2 2 2 2 2 2 1 1 1 2 2 2 1 1 2 2 2 2 1 1 0 0 0 0 0 1 1 1 2 2 2 2 2 2 2 1 1 -0 -1 -0 1 2 2 2 2 3 4 5 6 7 8 9 10 10 10 10 11 10 10 11 10 10 11 11 11 11 11 11 11 10 10 10 10 10 9
3 3 3 3 2 2 2 2 2 2 2 2 2 2 2 2 1 1 1 2 1 1 1 1 1 1 1 1 0 0 -0 -0 -0 -0 -1 -0 -0 0 1 1 1 1 1 2 1 1 0 -1 -1 -1 0 1 1 1 2 2 3 5 6 7 7 8 9 10 11 10 11 11 11 11 11 11 11 11 11 11 11 11 11 11 10 10 10 10 10
3 3 3 3 2 2 2 2 2 2 2 2 2 2 2 1 1 1 1 1 1 1 1 1 1 1 1 0 -0 -0 -0 -0 -1 -1 -1 -1 -1 -1 -0 0 1 1 1 1 1 1 0 -0 -1 -1 -0 -0 0 0 1 1 2 3 5 6 7 8 9 10 11 11 11 11 11 11 11 11 11 10 10 11 11 10 11 11 11 11 10 10 10
3 3 3 3 3 2 2 2 2 2 2 2 2 2 2 1 1 1 1 2 1 1 1 1 1 1 1 1 0 -0 -0 -0 -0 -1 -2 -2 -2 -1 -1 -0 -0 0 0 0 0 0 0 -0 -0 -1 -0 -0 0 0 1 1 1 2 3 4 6 8 9 10 10 10 10 10 10 10 11 11 11 11 11 11 11 10 10 10 10 10 10 10 10
3 3 3 3 3 2 2 2 2 2 2 2 2 2 2 2 2 2 2 2 2 2 1 2 2 1 1 1 1 0 -0 -0 -0 -1 -2 -2 -2 -2 -1 -1 -1 -1 -0 -0 -0 -0 -0 -0 -0 -1 -0 -0 -0 0 0 1 1 1 2 2 4 7 9 10 10 11 10 10 10 10 10 10 10 11 11 11 11 11 10 10 10 10 10 10 10
3 3 3 3 3 2 2 2 2 2 2 2 2 2 2 2 2 2 2 2 2 2 1 2 2 2 1 1 1 1 0 -0 -1 -1 -2 -3 -3 -2 -2 -2 -1 -1 -0 -0 -1 -1 -1 -1 -1 -1 -1 -0 -0 -0 0 0 1 1 2 2 4 6 9 10 10 10 9 9 9 10 10 10 10 10 10 11 10 10 10 10 10 10 10 10 10
3 3 3 3 3 3 2 2 2 2 2 2 2 2 2 2 2 2 2 2 2 1 1 1 1 2 2 1 1 1 0 -0 -1 -2 -2 -3 -3 -3 -2 -2 -1 -1 -1 -1 -1 -1 -1 -1 -1 -1 -1 -0 -0 -0 -0 0 1 1 1 2 3 5 7 8 8 8 8 8 9 9 9 9 10 10 10 10 10 10 10 10 10 10 10 10 10
4 3 3 3 3 3 2 2 2 2 2 2 2 2 2 2 2 2 2 1 1 1 1 1 1 1 1 1 1 1 0 -0 -1 -2 -3 -3 -3 -3 -2 -2 -1 -1 -1 -1 -1 -1 -1 -1 -1 -1 -1 -1 -0 -0 -0 0 0 1 1 2 3 4 6 7 7 7 7 7 8 9 9 9 9 10 10 10 10 10 10 10 10 10 9 10 10
4 3 3 3 3 3 3 2 2 2 2 2 2 2 2 2 2 2 1 1 1 1 1 1 1 0 0 0 0 0 -0 -0 -1 -2 -3 -3 -3 -3 -3 -2 -2 -1 -1 -1 -1 -1 -1 -1 -1 -1 -1 -1 -1 -0 -0 -0 -0 0 1 2 2 3 3 4 5 6 6 6 6 7 8 8 8 9 9 9 9 10 10 9 9 9 9 9 9
3 3 3 3 3 3 3 3 2 2 2 2 2 2 2 2 2 2 1 1 1 1 0 0 0 0 0 -0 -0 -0 -1 -1 -1 -2 -3 -3 -4 -3 -3 -2 -2 -1 -1 -1 -1 -1 -1 -1 -1 -1 -1 -1 -1 -1 -1 -1 -0 0 0 1 1 1 1 2 3 4 4 4 4 5 6 6 7 7 8 7 7 9 9 9 9 9 9 9 9
3 3 3 3 3 3 3 3 2 2 2 2 2 2 2 1 1 2 2 1 1 1 0 0 0 -0 -0 -0 -1 -1 -1 -1 -2 -2 -3 -3 -3 -3 -3 -3 -2 -2 -1 -1 -1 -1 -1 -1 -1 -1 -1 -1 -1 -1 -1 -1 -1 -0 -0 -0 0 0 0 1 1 2 2 2 3 3 4 5 6 7 7 7 6 7 8 8 7 7 7 8 8
3 3 3 3 3 3 3 2 2 2 2 2 2 2 2 1 1 2 2 1 1 1 0 0 -0 -0 -1 -1 -1 -1 -1 -2 -2 -3 -3 -3 -3 -3 -3 -3 -3 -2 -2 -2 -1 -1 -1 -1 -1 -1 -1 -1 -1 -1 -1 -1 -1 -1 -1 -1 -0 0 1 1 1 1 1 1 2 2 3 4 5 6 7 7 7 7 7 7 7 7 7 7 7
3 3 3 3 3 3 3 2 2 2 2 2 2 2 2 2 1 1 1 1 1 1 0 0 0 -0 -1 -1 -1 -1 -2 -2 -2 -3 -3 -3 -3 -3 -3 -3 -3 -3 -3 -2 -2 -1 -1 -1 -2 -2 -2 -2 -3 -2 -2 -2 -2 -1 -1 -1 -1 -0 0 1 1 1 1 1 1 2 2 3 4 5 6 6 6 7 7 6 7 7 7 7 6
3 3 3 3 3 2 2 2 2 2 2 2 2 2 2 2 1 1 1 1 1 1 0 0 -0 -0 -1 -1 -1 -2 -2 -2 -2 -3 -3 -3 -3 -3 -3 -3 -3 -3 -3 -2 -2 -2 -2 -3 -3 -3 -3 -3 -4 -3 -3 -3 -3 -2 -2 -1 -1 -1 -1 -0 -0 0 1 1 1 1 1 2 2 3 4 5 5 5 5 6 6 6 6 6 6
3 3 3 3 2 2 2 2 2 2 2 2 2 2 2 2 2 1 1 1 1 1 0 0 -0 -0 -0 -1 -1 -1 -1 -2 -2 -2 -3 -3 -3 -3 -3 -3 -3 -3 -3 -3 -3 -3 -3 -4 -4 -4 -4 -4 -4 -4 -4 -3 -3 -3 -3 -2 -2 -1 -1 -1 -1 -0 0 0 1 1 1 1 1 1 2 2 3 3 4 4 5 5 5 5 5
3 3 3 3 2 2 2 2 2 2 2 2 2 2 2 2 2 1 1 1 1 1 0 0 0 -0 -1 -1 -1 -1 -1 -1 -2 -2 -3 -3 -3 -3 -3 -3 -3 -3 -3 -3 -3 -3 -3 -4 -4 -4 -4 -4 -4 -4 -4 -4 -4 -3 -3 -3 -2 -2 -2 -1 -1 -1 -1 -0 -0 0 0 1 1 1 1 1 1 2 2 2 3 3 3 3 3
3 3 3 3 2 2 2 2 2 2 2 2 2 2 2 2 2 1 1 1 1 1 0 0 0 -0 -0 -1 -1 -1 -1 -1 -1 -2 -2 -3 -3 -3 -3 -3 -3 -3 -3 -3 -3 -3 -3 -3 -4 -4 -4 -4 -4 -4 -4 -4 -4 -4 -3 -3 -3 -3 -2 -2 -1 -1 -1 -1 -1 -1 -1 -0 0 0 1 1 1 1 1 1 1 2 2 2 2
3 3 3 2 2 2 2 2 2 2 2 2 2 2 2 2 2 1 1 1 1 1 1 0 0 -0 -0 -0 -1 -1 -1 -1 -1 -2 -2 -2 -3 -3 -3 -3 -3 -3 -3 -3 -3 -3 -3 -3 -3 -3 -4 -4 -4 -4 -4 -4 -4 -4 -4 -3 -3 -3 -3 -2 -2 -1 -1 -1 -1 -1 -1 -1 -1 -0 0 0 0 1 1 1 1 1 1 1 1
3 3 3 2 3 2 2 2 2 2 2 2 2 2 2 2 2 1 1 1 1 1 1 0 0 -0 -0 -0 -1 -1 -1 -1 -1 -1 -2 -2 -2 -2 -3 -3 -3 -3 -3 -3 -3 -3 -3 -3 -3 -3 -3 -4 -4 -4 -4 -4 -4 -4 -4 -4 -3 -3 -3 -3 -2 -2 -2 -1 -1 -1 -1 -1 -1 -1 -0 -0 -0 -0 -0 0 0 0 0 0 1
3 3 3 3 3 2 2 2 2 2 2 2 2 2 2 2 2 1 1 1 1 1 1 0 0 -0 -0 -0 -1 -1 -1 -1 -1 -1 -2 -2 -2 -2 -2 -3 -3 -3 -3 -3 -3 -3 -3 -3 -3 -3 -3 -3 -3 -4 -4 -4 -4 -4 -4 -3 -3 -3 -3 -3 -3 -2 -2 -2 -2 -2 -1 -1 -1 -1 -1 -1 -1 -1 -1 -1 -1 -0 -0 -0 -0
3 3 3 3 3 2 2 2 2 2 2 2 2 2 2 2 2 1 1 1 1 1 1 0 0 -0 -0 -0 -1 -1 -1 -1 -1 -1 -1 -1 -2 -2 -2 -3 -3 -3 -3 -3 -3 -4 -4 -3 -3 -3 -3 -3 -3 -4 -4 -4 -3 -3 -3 -3 -3 -3 -3 -3 -3 -3 -3 -2 -2 -2 -2 -2 -1 -1 -1 -1 -1 -1 -1 -1 -1 -1 -1 -1 -0
3 3 3 3 3 3 3 2 2 2 2 2 2 2 2 2 2 1 1 1 1 1 1 0 0 0 -0 -0 -1 -1 -1 -0 -0 -0 -1 -1 -1 -2 -2 -3 -3 -3 -3 -3 -3 -4 -4 -4 -3 -3 -3 -3 -3 -3 -3 -4 -4 -3 -3 -3 -3 -3 -3 -3 -2 -2 -3 -2 -2 -2 -2 -2 -2 -2 -2 -1 -1 -1 -1 -1 -1 -1 -1 -1 -1
3 3 3 3 3 3 3 2 2 2 2 2 2 2 2 2 2 1 1 1 1 1 1 0 0 0 -0 -0 -1 -1 -1 -1 -0 -1 -1 -1 -1 -2 -2 -3 -3 -3 -3 -3 -3 -3 -4 -4 -4 -4 -3 -3 -3 -3 -3 -3 -3 -3 -3 -3 -3 -3 -3 -3 -3 -2 -2 -2 -2 -2 -2 -2 -2 -2 -2 -2 -2 -2 -1 -1 -1 -1 -1 -1 -1
3 3 3 3 3 3 3 3 2 2 2 2 2 2 2 2 2 2 1 1 1 1 1 0 0 -0 -0 -0 -1 -1 -1 -1 -1 -1 -1 -1 -1 -2 -2 -2 -3 -3 -3 -4 -4 -3 -4 -4 -4 -4 -3 -3 -3 -3 -3 -3 -3 -3 -3 -3 -3 -3 -3 -3 -3 -3 -2 -2 -2 -2 -2 -2 -2 -2 -2 -2 -2 -2 -2 -2 -2 -2 -2 -1 -1
3 3 3 3 3 3 3 3 2 2 2 2 2 2 2 2 2 2 2 1 1 1 1 0 0 -0 -0 -0 -1 -1 -1 -1 -1 -1 -1 -1 -2 -2 -2 -2 -3 -3 -3 -3 -4 -4 -4 -4 -4 -4 -4 -3 -3 -3 -3 -3 -3 -3 -3 -3 -3 -3 -3 -3 -3 -3 -2 -2 -2 -2 -2 -2 -2 -2 -2 -2 -2 -2 -2 -2 -2 -2 -2 -2 -2
3 3 3 3 3 3 3 3 2 2 2 2 2 2 2 2 2 2 2 1 1 1 1 1 0 -0 -0 -0 -1 -1 -1 -1 -1 -1 -1 -1 -2 -2 -2 -2 -2 -3 -3 -3 -3 -3 -3 -3 -4 -4 -4 -4 -3 -3 -3 -3 -3 -3 -3 -3 -3 -3 -3 -3 -3 -3 -2 -2 -2 -2 -2 -2 -2 -2 -2 -2 -2 -2 -2 -2 -2 -2 -2 -2 -2
3 3 3 3 3 3 3 3 2 2 2 2 2 2 2 2 2 2 2 1 1 1 1 1 0 0 -0 -0 -1 -1 -1 -1 -1 -1 -1 -2 -2 -2 -2 -2 -2 -3 -3 -3 -3 -3 -3 -3 -3 -3 -4 -4 -4 -3 -3 -3 -3 -3 -3 -3 -3 -3 -3 -3 -3 -3 -3 -2 -2 -2 -2 -2 -2 -2 -2 -2 -2 -2 -2 -2 -2 -2 -2 -2 -2
3 3 3 3 3 3 3 3 3 2 2 2 2 2 2 2 2 2 2 2 1 1 1 1 0 0 0 -0 -0 -1 -1 -1 -1 -1 -1 -1 -2 -2 -2 -2 -2 -2 -3 -3 -3 -3 -3 -3 -3 -3 -4 -4 -4 -4 -4 -3 -3 -3 -3 -3 -3 -3 -3 -3 -3 -3 -3 -3 -2 -2 -2 -2 -2 -2 -2 -2 -2 -2 -2 -2 -2 -2 -2 -2 -2
3 3 3 3 3 3 3 3 3 2 2 2 2 2 2 2 2 2 2 2 1 1 1 1 1 1 0 0 -0 -1 -1 -1 -1 -1 -1 -1 -2 -2 -2 -2 -2 -2 -2 -3 -3 -3 -3 -3 -3 -3 -3 -4 -4 -4 -4 -4 -3 -3 -3 -3 -3 -3 -3 -3 -3 -3 -3 -3 -2 -2 -2 -2 -2 -2 -2 -2 -2 -2 -2 -2 -2 -2 -2 -2 -2
3 3 3 3 3 3 3 3 3 3 2 2 2 2 2 2 2 2 2 2 1 1 1 1 1 1 0 0 0 -0 -1 -1 -1 -1 -1 -1 -2 -2 -2 -2 -2 -2 -2 -2 -3 -3 -3 -3 -3 -4 -4 -4 -4 -4 -4 -4 -3 -3 -3 -3 -3 -3 -3 -3 -3 -3 -3 -3 -3 -2 -2 -2 -2 -2 -2 -2 -2 -2 -2 -2 -2 -2 -2 -2 -2
3 3 3 3 3 3 3 3 3 3 2 2 2 2 2 2 2 2 2 2 2 1 1 1 1 1 1 0 0 -0 -0 -1 -1 -1 -1 -1 -2 -2 -2 -2 -2 -2 -2 -2 -3 -3 -3 -3 -4 -4 -4 -4 -4 -4 -4 -4 -4 -3 -3 -3 -3 -3 -3 -3 -3 -3 -3 -3 -3 -3 -2 -2 -2 -2 -2 -2 -2 -2 -2 -2 -2 -2 -2 -2 -2
3 3 3 3 3 3 3 3 3 2 2 2 2 2 2 2 2 2 2 2 2 2 1 1 1 1 1 1 0 0 -0 -1 -1 -1 -1 -2 -2 -2 -2 -2 -2 -2 -2 -3 -3 -3 -3 -3 -4 -4 -4 -4 -4 -4 -4 -4 -4 -3 -3 -3 -3 -3 -3 -3 -3 -3 -3 -3 -3 -3 -3 -2 -2 -2 -2 -2 -2 -2 -2 -2 -2 -2 -2 -2 -2
3 3 3 3 3 3 3 3 3 3 2 2 2 2 2 2 2 2 2 2 2 2 1 1 1 1 1 1 0 0 -0 -0 -1 -1 -1 -2 -2 -2 -2 -2 -2 -2 -2 -3 -3 -3 -3 -3 -4 -4 -4 -4 -4 -4 -4 -4 -4 -3 -3 -3 -3 -3 -3 -3 -3 -3 -3 -3 -3 -3 -3 -3 -3 -2 -2 -2 -2 -2 -2 -2 -2 -2 -2 -2 -2
3 3 3 3 3 3 3 3 3 3 3 2 2 2 2 2 2 2 2 2 2 2 1 1 1 1 1 1 0 0 -0 -0 -0 -1 -1 -1 -1 -2 -2 -2 -2 -2 -2 -2 -3 -3 -3 -3 -4 -4 -4 -4 -4 -4 -4 -4 -4 -4 -4 -4 -3 -3 -3 -3 -3 -3 -3 -3 -3 -3 -3 -3 -3 -3 -3 -2 -2 -2 -2 -2 -2 -2 -2 -2 -2
3 3 3 3 3 3 3 3 3 3 3 3 3 3 2 2 2 2 2 2 2 2 1 1 1 1 1 1 0 0 0 -0 -0 -0 -1 -1 -1 -1 -2 -2 -2 -2 -2 -2 -2 -3 -3 -3 -3 -4 -4 -4 -4 -4 -4 -4 -4 -4 -4 -4 -4 -4 -3 -3 -3 -3 -3 -3 -3 -3 -3 -3 -3 -3 -3 -3 -3 -3 -2 -2 -2 -2 -2 -2 -2
Height
1545 1545 1544 1544 1544 1543 1542 1541 1539 1538 1537 1537 1536 1535 1534 1533 1532 1532 1531 1530 1528 1526 1525 1523 1521 1520 1518 1516 1514 1512 1510 1508 1506 1504 1502 1500 1498 1495 1493 1491 1489 1487 1486 1485 1485 1484 1482 1481 1480 1480 1480 1479 1478 1478 1477 1477 1477 1476 1476 1476 1476 1476 1477 1476 1474 1473 1476 1478 1479 1481 1482 1483 1484 1485 1486 1488 1490 1492 1495 1497 1499 1500 1502 1504 1505
1546 1545 1545 1545 1545 1543 1542 1541 1539 1539 1538 1537 1536 1535 1534 1533 1532 1531 1530 1529 1528 1526 1524 1522 1521 1519 1517 1515 1513 1511 1509 1507 1505 1502 1500 1498 1496 1494 1492 1489 1487 1485 1483 1482 1481 1480 1479 1478 1477 1477 1477 1476 1475 1475 1475 1474 1474 1473 1473 1473 1472 1472 1472 1472 1471 1470 1471 1474 1476 1476 1478 1479 1479 1480 1482 1483 1485 1488 1490 1492 1494 1496 1498 1500 1501
1546 1546 1546 1545 1544 1543 1542 1541 1540 1539 1539 1538 1537 1536 1534 1533 1532 1531 1530 1528 1527 1525 1523 1522 1520 1519 1517 1515 1513 1511 1509 1506 1504 1501 1499 1497 1495 1492 1490 1488 1485 1483 1481 1479 1478 1476 1475 1474 1474 1474 1474 1473 1472 1472 1472 1471 1471 1470 1469 1469 1468 1468 1468 1468 1467 1466 1466 1469 1471 1472 1473 1475 1475 1476 1478 1480 1482 1484 1485 1487 1489 1491 1493 1495 1497
1547 1547 1547 1545 1544 1543 1542 1541 1541 1540 1539 1538 1537 1536 1534 1533 1532 1531 1530 1528 1527 1525 1523 1522 1520 1518 1517 1515 1513 1510 1508 1506 1504 1501 1498 1496 1493 1491 1489 1487 1484 1482 1479 1477 1475 1473 1472 1471 1471 1471 1471 1469 1469 1469 1468 1468 1468 1467 1466 1465 1464 1464 1463 1463 1463 1462 1462 1463 1465 1467 1469 1470 1471 1473 1474 1476 1478 1479 1481 1483 1485 1487 1489 1491 1493
1547 1547 1547 1545 1544 1543 1542 1542 1542 1541 1540 1539 1538 1536 1535 1534 1533 1532 1530 1528 1527 1525 1523 1521 1520 1518 1516 1514 1512 1510 1507 1505 1503 1500 1498 1495 1493 1490 1487 1485 1483 1480 1478 1476 1473 1471 1469 1468 1467 1467 1467 1466 1466 1466 1465 1465 1464 1463 1462 1461 1460 1460 1459 1459 1458 1458 1458 1458 1460 1462 1464 1465 1467 1469 1470 1472 1473 1474 1476 1478 1480 1483 1485 1487 1489
1548 1548 1547 1546 1545 1544 1543 1543 1542 1542 1541 1539 1538 1537 1536 1535 1534 1532 1531 1529 1527 1525 1524 1522 1520 1518 1516 1514 1512 1510 1507 1505 1502 1500 1497 1495 1492 1489 1487 1484 1481 1479 1476 1474 1472 1469 1467 1466 1465 1464 1464 1464 1463 1462 1462 1461 1460 1459 1458 1457 1456 1456 1455 1454 1454 1454 1454 1454 1456 1458 1459 1460 1462 1464 1466 1468 1469 1470 1472 1474 1476 1478 1480 1483 1486
1549 1548 1548 1546 1545 1545 1544 1544 1543 1542 1541 1540 1539 1538 1537 1536 1535 1533 1532 1530 1528 1526 1525 1523 1521 1519 1517 1515 1513 1510 1508 1505 1502 1500 1497 1494 1491 1488 1486 1483 1480 1478 1475 1472 1470 1468 1466 1464 1462 1462 1461 1460 1459 1458 1457 1456 1454 1454 1453 1453 1452 1452 1450 1449 1449 1449 1450 1451 1452 1453 1454 1456 1458 1460 1462 1464 1464 1465 1467 1470 1471 1473 1475 1479 1482
1550 1549 1548 1547 1546 1546 1545 1545 1544 1543 1542 1541 1540 1539 1538 1537 1536 1534 1533 1531 1529 1527 1526 1524 1522 1520 1518 1516 1513 1511 1508 1505 1501 1499 1496 1493 1491 1488 1485 1482 1479 1476 1474 1471 1469 1466 1464 1462 1461 1459 1458 1457 1456 1455 1454 1452 1450 1449 1448 1448 1448 1447 1446 1445 1444 1444 1445 1446 1447 1448 1450 1452 1453 1455 1457 1458 1458 1460 1462 1465 1466 1468 1470 1474 1477
1551 1550 1549 1548 1548 1547 1547 1546 1545 1544 1543 1542 1541 1540 1539 1538 1537 1536 1534 1532 1530 1529 1527 1525 1523 1521 1519 1516 1514 1511 1508 1505 1502 1499 1496 1493 1490 1487 1485 1481 1478 1475 1472 1470 1467 1465 1463 1461 1459 1457 1455 1454 1453 1451 1450 1449 1447 1445 1444 1444 1444 1443 1443 1442 1440 1440 1440 1442 1443 1444 1446 1447 1447 1449 1451 1451 1453 1456 1458 1460 1461 1464 1466 1469 1471
1552 1551 1550 1550 1549 1548 1548 1547 1546 1545 1544 1543 1543 1542 1541 1540 1538 1537 1535 1533 1532 1530 1528 1526 1524 1522 1519 1517 1514 1511 1509 1506 1503 1501 1497 1494 1491 1487 1484 1481 1478 1474 1471 1468 1465 1463 1461 1458 1456 1455 1453 1450 1448 1447 1445 1444 1443 1441 1440 1439 1439 1439 1438 1438 1437 1436 1436 1436 1437 1439 1441 1441 1442 1443 1445 1446 1450 1453 1455 1455 1457 1460 1462 1462 1464
1553 1552 1552 1551 1550 1550 1549 1548 1547 1546 1545 1545 1544 1543 1542 1541 1539 1538 1536 1535 1533 1531 1530 1527 1525 1523 1520 1518 1515 1512 1509 1506 1504 1501 1498 1494 1491 1488 1484 1481 1477 1474 1470 1467 1464 1461 1458 1456 1453 1451 1449 1447 1444 1442 1440 1439 1438 1436 1435 1434 1434 1434 1433 1433 1432 1432 1431 1431 1432 1434 1435 1435 1438 1439 1441 1443 1446 1448 1449 1450 1452 1455 1455 1456 1459
1554 1553 1553 1552 1551 1551 1550 1549 1548 1547 1547 1546 1545 1544 1543 1542 1540 1539 1537 1536 1534 1532 1530 1528 1526 1523 1521 1518 1515 1512 1509 1506 1503 1501 1497 1494 1491 1488 1484 1481 1477 1473 1470 1466 1463 1459 1456 1453 1451 1448 1446 1443 1440 1438 1435 1434 1433 1431 1430 1429 1428 1428 1428 1428 1427 1427 1427 1426 1426 1427 1428 1430 1432 1434 1435 1438 1441 1443 1444 1445 1446 1448 1449 1451 1453
1555 1554 1554 1553 1552 1552 1551 1550 1549 1548 1548 1547 1546 1545 1544 1542 1541 1539 1538 1536 1535 1533 1531 1528 1526 1524 1521 1518 1515 1512 1509 1506 1503 1500 1497 1494 1491 1488 1485 1481 1477 1473 1470 1466 1463 1459 1455 1451 1448 1446 1443 1440 1437 1434 1431 1429 1427 1426 1424 1423 1422 1422 1422 1422 1422 1422 1422 1422 1421 1421 1422 1424 1427 1428 1430 1433 1436 1438 1438 1439 1441 1443 1444 1446 1449
1556 1555 1555 1554 1553 1553 1552 1551 1550 1549 1549 1548 1547 1546 1544 1543 1542 1540 1539 1537 1535 1533 1531 1529 1526 1524 1521 1518 1515 1512 1509 1506 1503 1499 1496 1493 1490 1487 1484 1481 1477 1474 1470 1466 1462 1458 1454 1450 1447 1444 1441 1438 1434 1431 1427 1424 1422 1421 1419 1418 1417 1416 1416 1416 1417 1417 1417 1417 1417 1416 1417 1420 1422 1423 1426 1428 1430 1431 1433 1434 1436 1438 1440 1444 1446
1557 1556 1555 1555 1554 1554 1553 1552 1551 1550 1550 1549 1548 1547 1545 1544 1542 1541 1540 1538 1536 1534 1531 1529 1527 1524 1521 1519 1516 1513 1510 1506 1503 1499 1496 1493 1490 1487 1484 1480 1477 1473 1470 1466 1462 1457 1454 1450 1446 1443 1439 1436 1433 1429 1425 1421 1418 1416 1414 1412 1411 1410 1409 1410 1411 1412 1412 1412 1412 1412 1413 1415 1417 1419 1421 1422 1424 1426 1428 1430 1433 1435 1438 1441 1442
1557 1557 1556 1556 1555 1555 1554 1553 1552 1552 1551 1550 1549 1547 1546 1545 1543 1542 1541 1539 1537 1535 1532 1530 1527 1524 1522 1519 1516 1513 1510 1506 1503 1499 1496 1492 1489 1486 1483 1479 1476 1472 1469 1465 1461 1457 1453 1449 1445 1442 1438 1434 1431 1427 1423 1419 1415 1412 1410 1407 1405 1404 1403 1405 1406 1406 1407 1407 1407 1407 1408 1409 1411 1414 1416 1418 1419 1422 1424 1427 1429 1431 1433 1436 1437
1558 1557 1557 1556 1556 1556 1555 1554 1553 1553 1552 1551 1549 1548 1547 1545 1544 1543 1541 1540 1538 1535 1533 1530 1527 1525 1522 1519 1516 1513 1510 1506 1503 1499 1495 1492 1488 1485 1482 1479 1475 1472 1468 1464 1460 1457 1453 1449 1445 1441 1437 1433 1429 1425 1421 1416 1412 1409 1405 1402 1400 1398 1397 1400 1401 1400 1401 1402 1403 1403 1404 1405 1406 1408 1410 1412 1414 1417 1420 1421 1423 1425 1427 1429 1431
1558 1558 1557 1557 1557 1557 1556 1555 1555 1554 1552 1551 1550 1548 1547 1546 1545 1544 1542 1540 1539 1536 1534 1531 1528 1525 1522 1519 1516 1513 1510 1506 1503 1499 1495 1492 1488 1484 1481 1478 1474 1471 1467 1463 1460 1456 1452 1449 1446 1441 1436 1432 1427 1423 1419 1414 1409 1405 1401 1398 1394 1392 1393 1395 1396 1395 1396 1397 1398 1399 1400 1400 1402 1403 1405 1407 1410 1412 1414 1415 1417 1420 1422 1423 1425
1558 1558 1558 1558 1558 1557 1557 1556 1555 1554 1553 1551 1550 1549 1548 1547 1546 1545 1543 1541 1539 1537 1535 1532 1529 1526 1523 1520 1517 1514 1510 1507 1503 1499 1495 1492 1488 1484 1481 1477 1474 1470 1466 1462 1458 1455 1451 1448 1445 1441 1436 1431 1426 1421 1417 1412 1407 1402 1398 1393 1389 1386 1389 1391 1390 1390 1391 1391 1392 1394 1395 1396 1397 1399 1401 1403 1405 1407 1408 1410 1413 1415 1416 1418 1421
1559 1559 1559 1559 1558 1558 1558 1557 1556 1555 1553 1552 1551 1550 1549 1548 1547 1545 1543 1542 1540 1538 1535 1532 1530 1527 1524 1521 1518 1514 1510 1507 1503 1499 1496 1492 1489 1485 1481 1477 1473 1470 1466 1462 1458 1454 1450 1446 1443 1439 1435 1430 1425 1420 1415 1411 1406 1400 1395 1390 1385 1382 1384 1384 1383 1384 1385 1386 1388 1389 1390 1391 1393 1394 1396 1398 1400 1402 1404 1406 1408 1409 1411 1414 1416
1560 1560 1559 1559 1559 1559 1558 1557 1556 1555 1554 1553 1552 1551 1550 1549 1547 1545 1544 1542 1540 1538 1535 1533 1530 1527 1524 1521 1518 1515 1511 1507 1503 1500 1496 1493 1490 1486 1483 1479 1475 1471 1467 1463 1458 1454 1449 1445 1441 1438 1434 1429 1425 1419 1414 1409 1404 1399 1393 1388 1382 1378 1378 1377 1377 1379 1380 1381 1383 1385 1386 1387 1389 1390 1391 1393 1395 1396 1398 1401 1403 1404 1407 1409 1411
1560 1560 1560 1560 1560 1559 1559 1558 1557 1556 1555 1554 1553 1552 1550 1549 1547 1545 1544 1542 1540 1538 1535 1533 1530 1528 1525 1522 1518 1515 1512 1508 1504 1500 1497 1494 1491 1488 1484 1481 1477 1473 1468 1463 1459 1455 1450 1446 1442 1437 1433 1429 1425 1420 1414 1408 1403 1397 1391 1385 1379 1374 1372 1372 1373 1374 1375 1377 1379 1380 1382 1383 1384 1386 1387 1388 1390 1392 1394 1396 1398 1400 1402 1404 1406
1560 1561 1560 1560 1560 1560 1559 1558 1557 1557 1556 1555 1553 1552 1550 1549 1547 1546 1544 1542 1540 1538 1535 1533 1530 1527 1525 1522 1518 1515 1512 1508 1505 1501 1498 1495 1492 1489 1486 1482 1478 1474 1469 1465 1461 1457 1452 1448 1443 1438 1434 1429 1425 1420 1414 1408 1402 1396 1390 1383 1377 1372 1369 1368 1369 1370 1371 1374 1375 1377 1378 1379 1381 1382 1384 1384 1386 1388 1391 1392 1394 1396 1399 1401 1403
1561 1561 1561 1561 1560 1560 1560 1559 1558 1557 1556 1555 1554 1552 1551 1549 1548 1546 1544 1542 1540 1538 1535 1533 1530 1527 1524 1521 1519 1515 1512 1509 1505 1502 1499 1496 1493 1490 1487 1483 1479 1475 1471 1467 1463 1459 1454 1450 1445 1440 1435 1430 1425 1421 1415 1410 1403 1396 1389 1383 1377 1372 1369 1367 1367 1368 1370 1372 1373 1374 1375 1376 1377 1378 1380 1381 1383 1385 1388 1389 1391 1393 1395 1397 1399
1561 1561 1561 1561 1561 1560 1560 1559 1559 1558 1557 1555 1554 1553 1551 1550 1548 1546 1544 1542 1540 1538 1536 1533 1531 1528 1525 1522 1519 1516 1512 1509 1506 1503 1500 1497 1494 1491 1488 1484 1480 1476 1472 1469 1465 1461 1457 1452 1447 1442 1436 1431 1426 1420 1416 1411 1405 1398 1390 1383 1378 1374 1371 1368 1367 1367 1368 1370 1371 1373 1373 1374 1374 1375 1376 1378 1380 1382 1385 1387 1389 1390 1392 1394 1396
1561 1561 1561 1561 1561 1560 1560 1559 1559 1558 1557 1556 1554 1553 1551 1550 1548 1547 1545 1543 1541 1539 1536 1534 1531 1529 1526 1523 1520 1517 1513 1510 1507 1503 1500 1498 1495 1492 1489 1485 1481 1478 1474 1470 1466 1462 1458 1453 1449 1443 1438 1433 1427 1422 1417 1412 1407 1400 1393 1386 1381 1378 1375 1372 1369 1368 1369 1369 1371 1373 1374 1374 1374 1375 1376 1378 1378 1378 1382 1385 1387 1388 1390 1391 1393
1560 1561 1561 1561 1560 1560 1560 1559 1559 1558 1557 1556 1554 1553 1552 1550 1549 1547 1545 1544 1542 1539 1537 1535 1532 1529 1526 1524 1521 1518 1514 1511 1507 1504 1501 1499 1496 1493 1490 1486 1482 1478 1474 1470 1467 1462 1458 1454 1450 1445 1440 1435 1429 1424 1419 1414 1409 1403 1397 1392 1387 1383 1381 1378 1375 1373 1372 1372 1373 1375 1377 1377 1376 1376 1378 1381 1381 1379 1381 1385 1387 1388 1389 1390 1392
1560 1561 1561 1560 1560 1560 1560 1559 1559 1558 1557 1556 1555 1553 1552 1551 1549 1547 1546 1544 1542 1540 1538 1536 1533 1530 1527 1525 1522 1519 1516 1512 1509 1506 1503 1501 1498 1495 1491 1487 1483 1479 1476 1472 1468 1465 1460 1456 1451 1445 1440 1435 1430 1425 1421 1416 1412 1407 1403 1398 1394 1390 1387 1384 1381 1378 1378 1378 1377 1378 1379 1379 1378 1378 1380 1384 1384 1382 1383 1387 1388 1389 1390 1391 1392
1560 1560 1560 1560 1560 1560 1559 1559 1558 1558 1557 1556 1555 1554 1552 1551 1549 1548 1546 1545 1543 1541 1539 1537 1535 1532 1529 1526 1523 1520 1517 1514 1512 1509 1507 1504 1501 1497 1494 1490 1486 1483 1479 1475 1471 1466 1461 1456 1451 1446 1441 1437 1432 1428 1423 1420 1416 1412 1408 1404 1400 1396 1392 1389 1387 1385 1385 1385 1382 1381 1382 1383 1382 1382 1384 1386 1386 1386 1387 1390 1391 1391 1393 1394 1395
1560 1560 1560 1560 1560 1559 1559 1559 1558 1557 1557 1556 1555 1554 1553 1551 1550 1548 1547 1545 1544 1542 1540 1538 1536 1533 1531 1529 1526 1523 1520 1517 1515 1512 1509 1506 1503 1500 1497 1493 1490 1486 1482 1478 1473 1468 1463 1458 1454 1450 1446 1442 1437 1432 1428 1425 1421 1417 1413 1409 1406 1402 1399 1396 1394 1393 1393 1392 1389 1388 1388 1388 1387 1387 1389 1390 1389 1390 1391 1392 1393 1393 1395 1396 1398
1560 1560 1560 1560 1559 1559 1559 1558 1558 1557 1557 1556 1555 1554 1553 1552 1550 1549 1548 1546 1544 1543 1541 1539 1537 1535 1532 1530 1528 1526 1523 1519 1517 1514 1511 1508 1505 1502 1499 1495 1492 1488 1484 1480 1475 1471 1467 1463 1459 1455 1452 1448 1443 1439 1435 1431 1427 1423 1418 1415 1411 1408 1406 1404 1402 1401 1400 1398 1397 1396 1396 1395 1395 1395 1395 1395 1395 1395 1394 1394 1394 1395 1396 1397 1400
1559 1559 1559 1559 1559 1559 1558 1558 1558 1557 1557 1556 1555 1554 1553 1552 1551 1550 1548 1547 1545 1544 1542 1540 1538 1536 1534 1531 1529 1526 1523 1520 1517 1515 1512 1509 1506 1504 1500 1497 1494 1490 1487 1482 1478 1474 1471 1468 1464 1460 1457 1453 1449 1445 1441 1437 1433 1429 1424 1421 1418 1415 1413 1411 1409 1408 1406 1404 1403 1402 1402 1402 1403 1403 1403 1403 1403 1402 1400 1399 1399 1399 1399 1401 1403
1558 1558 1559 1559 1559 1559 1558 1558 1558 1557 1557 1556 1555 1554 1553 1552 1551 1550 1549 1547 1546 1544 1542 1541 1539 1537 1535 1532 1530 1527 1524 1521 1518 1516 1513 1510 1508 1505 1502 1499 1496 1492 1488 1484 1481 1478 1475 1472 1469 1465 1462 1458 1455 1451 1447 1443 1440 1435 1431 1428 1425 1423 1421 1418 1416 1413 1412 1411 1410 1409 1408 1409 1410 1409 1409 1410 1411 1410 1408 1406 1405 1405 1405 1406 1408
1558 1558 1558 1559 1559 1559 1558 1558 1558 1557 1557 1556 1555 1554 1554 1553 1551 1550 1549 1548 1546 1544 1542 1541 1539 1537 1535 1533 1531 1528 1525 1522 1519 1517 1514 1511 1509 1506 1504 1501 1498 1495 1491 1487 1484 1481 1479 1476 1473 1469 1466 1463 1460 1456 1453 1449 1446 1442 1439 1436 1433 1430 1428 1425 1422 1420 1418 1417 1416 1415 1415 1415 1415 1414 1414 1416 1417 1416 1414 1413 1412 1411 1411 1412 1414
1557 1558 1558 1558 1558 1558 1558 1558 1558 1557 1557 1556 1555 1554 1554 1553 1552 1551 1549 1548 1546 1544 1543 1541 1539 1538 1536 1533 1531 1528 1526 1523 1520 1518 1515 1513 1510 1508 1505 1502 1498 1495 1492 1490 1487 1484 1482 1479 1477 1474 1471 1467 1464 1461 1458 1454 1451 1448 1444 1441 1439 1436 1433 1430 1428 1426 1425 1424 1423 1422 1421 1421 1421 1420 1420 1421 1421 1421 1420 1419 1418 1417 1417 1418 1419
1557 1557 1558 1558 1558 1558 1558 1558 1557 1557 1556 1556 1555 1555 1554 1553 1552 1551 1549 1548 1546 1545 1543 1542 1540 1538 1536 1534 1532 1529 1526 1524 1521 1518 1516 1514 1511 1508 1505 1502 1499 1497 1494 1492 1490 1488 1485 1483 1480 1478 1475 1472 1468 1465 1462 1459 1456 1453 1450 1447 1444 1441 1439 1436 1434 1433 1432 1431 1429 1429 1428 1427 1427 1426 1426 1426 1426 1426 1426 1425 1425 1424 1424 1424 1425
1557 1557 1558 1558 1558 1558 1558 1557 1557 1557 1556 1556 1555 1554 1554 1553 1552 1551 1549 1548 1547 1545 1544 1542 1541 1539 1537 1535 1533 1530 1528 1525 1523 1520 1518 1515 1512 1509 1507 1504 1502 1499 1497 1494 1492 1490 1488 1486 1484 1481 1478 1476 1473 1470 1467 1464 1461 1458 1456 1453 1450 1447 1445 1443 1441 1439 1438 1437 1436 1435 1434 1433 1433 1433 1432 1432 1431 1431 1431 1431 1431 1430 1430 1430 1431
1557 1557 1558 1558 1558 1557 1557 1557 1557 1556 1556 1555 1555 1554 1553 1553 1552 1551 1550 1548 1547 1545 1544 1542 1541 1539 1537 1535 1533 1531 1529 1527 1524 1521 1518 1516 1513 1510 1508 1506 1504 1502 1499 1497 1495 1493 1491 1489 1486 1484 1482 1479 1477 1474 1471 1468 1466 1463 1461 1458 1456 1453 1451 1448 1446 1444 1444 1443 1442 1441 1440 1439 1438 1438 1437 1437 1437 1437 1437 1437 1436 1436 1436 1436 1436
1557 1557 1557 1557 1557 1557 1557 1556 1556 1556 1555 1555 1555 1554 1553 1552 1551 1550 1550 1548 1547 1545 1544 1543 1541 1539 1537 1535 1533 1531 1529 1527 1524 1521 1519 1516 1514 1511 1509 1507 1506 1504 1501 1499 1497 1495 1493 1491 1489 1487 1485 1482 1480 1477 1475 1473 1470 1468 1466 1463 1461 1459 1456 1454 1452 1450 1449 1448 1447 1446 1445 1444 1443 1443 1443 1442 1442 1442 1442 1441 1441 1441 1441 1441 1441
1556 1556 1556 1557 1557 1556 1556 1556 1556 1555 1555 1555 1554 1553 1553 1552 1551 1550 1549 1548 1547 1545 1544 1543 1541 1539 1538 1536 1534 1532 1530 1527 1525 1522 1520 1517 1515 1513 1511 1509 1507 1505 1503 1501 1499 1497 1495 1493 1491 1489 1487 1485 1483 1481 1478 1476 1474 1472 1470 1468 1466 1464 1462 1459 1458 1456 1455 1454 1453 1451 1450 1449 1449 1448 1448 1447 1446 1447 1446 1446 1445 1445 1445 1445 1446
1555 1555 1556 1556 1556 1556 1555 1555 1555 1555 1554 1554 1553 1553 1552 1551 1551 1550 1549 1548 1546 1545 1544 1543 1541 1539 1538 1536 1534 1532 1531 1528 1526 1524 1521 1519 1517 1514 1512 1510 1508 1506 1504 1502 1500 1499 1497 1495 1493 1491 1489 1487 1485 1483 1481 1479 1477 1475 1473 1471 1469 1468 1466 1464 1462 1461 1460 1459 1457 1456 1455 1455 1454 1453 1452 1452 1451 1451 1451 1450 1450 1449 1449 1449 1450
1554 1555 1555 1555 1555 1555 1555 1554 1554 1554 1554 1553 1553 1552 1552 1551 1550 1549 1548 1547 1546 1545 1543 1542 1541 1539 1538 1536 1534 1533 1531 1529 1527 1525 1523 1520 1518 1516 1514 1512 1510 1508 1506 1504 1502 1500 1498 1496 1494 1493 1491 1489 1487 1485 1483 1482 1480 1478 1476 1474 1473 1471 1470 1468 1467 1466 1465 1463 1462 1461 1460 1459 1459 1458 1457 1456 1456 1455 1455 1455 1454 1454 1453 1454 1455
1553 1553 1554 1554 1554 1554 1554 1554 1554 1553 1553 1552 1552 1551 1551 1550 1549 1549 1548 1547 1545 1544 1543 1542 1541 1539 1538 1536 1535 1533 1532 1530 1528 1526 1524 1522 1520 1517 1515 1513 1511 1509 1507 1505 1503 1502 1500 1498 1496 1494 1492 1491 1489 1487 1486 1484 1482 1480 1479 1477 1476 1474 1473 1472 1471 1470 1468 1467 1466 1465 1464 1463 1462 1462 1461 1460 1460 1459 1459 1459 1458 1458 1458 1458 1459
1551 1552 1552 1553 1553 1553 1553 1553 1553 1552 1552 1552 1551 1551 1550 1550 1549 1548 1547 1546 1545 1544 1543 1541 1540 1539 1537 1536 1535 1533 1532 1530 1529 1527 1525 1523 1521 1519 1517 1514 1512 1510 1508 1507 1505 1503 1501 1500 1498 1496 1494 1493 1491 1489 1488 1486 1484 1483 1481 1479 1478 1477 1475 1474 1473 1472 1471 1471 1470 1469 1468 1467 1466 1465 1465 1464 1464 1463 1463 1463 1462 1462 1462 1463 1464
1550 1551 1551 1551 1552 1552 1552 1552 1552 1551 1551 1551 1550 1550 1549 1549 1548 1547 1546 1545 1544 1543 1542 1541 1540 1538 1537 1536 1535 1533 1532 1530 1529 1527 1526 1524 1522 1520 1518 1516 1514 1512 1509 1508 1506 1504 1502 1501 1499 1498 1496 1495 1493 1491 1490 1488 1486 1485 1483 1481 1480 1478 1477 1476 1476 1475 1474 1474 1473 1472 1471 1470 1470 1469 1469 1468 1468 1467 1467 1466 1466 1466 1466 1467 1467
1549 1549 1550 1550 1550 1551 1551 1551 1550 1550 1550 1550 1549 1549 1548 1548 1547 1546 1546 1545 1544 1543 1542 1540 1539 1538 1537 1536 1534 1533 1532 1530 1529 1527 1526 1524 1523 1521 1519 1517 1515 1513 1511 1509 1507 1505 1503 1502 1501 1499 1497 1496 1494 1493 1491 1490 1488 1486 1485 1483 1482 1480 1479 1478 1478 1477 1477 1476 1476 1475 1474 1474 1473 1472 1472 1471 1471 1470 1470 1469 1469 1469 1469 1470 1470
1547 1548 1548 1549 1549 1549 1549 1549 1549 1549 1549 1549 1548 1548 1547 1547 1546 1545 1545 1544 1543 1542 1541 1540 1538 1537 1536 1535 1534 1532 1531 1530 1529 1527 1526 1524 1523 1521 1520 1518 1516 1514 1512 1510 1508 1506 1505 1503 1502 1500 1499 1497 1496 1494 1493 1491 1490 1488 1486 1485 1484 1482 1481 1480 1479 1479 1479 1478 1478 1477 1477 1476 1476 1475 1475 1474 1473 1473 1472 1472 1472 1472 1472 1473 1473
1546 1546 1547 1547 1548 1548 1548 1548 1548 1548 1547 1547 1547 1547 1546 1545 1545 1544 1544 1543 1542 1541 1540 1539 1538 1536 1535 1534 1533 1532 1531 1529 1528 1527 1526 1524 1523 1522 1520 1518 1517 1515 1513 1511 1509 1508 1506 1504 1503 1501 1500 1498 1497 1495 1494 1492 1491 1489 1488 1486 1485 1484 1483 1482 1481 1480 1480 1479 1479 1479 1479 1478 1478 1477 1477 1476 1476 1475 1475 1475 1475 1475 1475 1475 1476
1544 1545 1545 1546 1546 1546 1546 1546 1546 1546 1546 1546 1546 1545 1545 1544 1544 1543 1542 1542 1541 1540 1539 1538 1537 1536 1535 1534 1532 1531 1530 1529 1528 1526 1525 1524 1523 1521 1520 1519 1517 1515 1514 1512 1510 1509 1507 1505 1504 1503 1501 1500 1498 1497 1495 1494 1492 1491 1489 1488 1486 1485 1484 1483 1482 1481 1481 1480 1480 1480 1480 1480 1479 1479 1479 1478 1478 1478 1477 1477 1477 1477 1477 1477 1478
1543 1543 1543 1544 1544 1544 1544 1544 1544 1544 1544 1544 1544 1543 1543 1543 1542 1541 1541 1540 1540 1539 1538 1537 1536 1535 1534 1533 1532 1530 1529 1528 1527 1526 1525 1524 1522 1521 1520 1519 1517 1516 1514 1512 1511 1509 1508 1506 1505 1504 1502 1501 1499 1498 1496 1495 1493 1492 1490 1489 1487 1486 1485 1484 1483 1482 1482 1481 1481 1481 1481 1481 1480 1480 1480 1479 1479 1479 1479 1479 1479 1479 1479 1479 1479
1541 1541 1541 1542 1542 1542 1542 1542 1542 1542 1542 1542 1542 1541 1541 1541 1540 1540 1539 1539 1538 1538 1537 1536 1535 1534 1533 1532 1531 1530 1528 1527 1526 1525 1524 1523 1522 1521 1520 1518 1517 1516 1514 1513 1511 1510 1509 1507 1506 1504 1503 1502 1500 1499 1498 1496 1495 1493 1492 1490 1489 1487 1486 1485 1484 1483 1482 1482 1482 1481 1481 1481 1481 1481 1480 1480 1480 1480 1480 1479 1479 1479 1479 1479 1480
Wind_Speed
3 3 2 2 2 4 5 5 6 5 5 5 4 4 5 6 6 7 8 10 11 12 13 14 14 15 15 14 15 16 18 18 19 20 21 21 22 23 24 25 25 25 26 26 26 26 25 24 22 22 21 21 21 21 22 23 24 26 28 31 32 32 33 36 40 40 37 34 33 31 29 28 28 29 30 32 33 33 34 34 33 32 32 31 31
4 3 3 3 5 7 8 8 8 8 8 8 8 9 9 9 9 9 9 10 11 12 13 14 14 14 15 15 16 17 18 20 21 23 24 24 24 24 25 26 26 26 25 24 24 24 26 25 23 22 22 22 22 21 21 23 24 26 28 30 32 33 35 37 39 41 40 36 34 34 31 30 30 30 30 32 33 34 35 37 36 35 34 33 32
4 4 4 6 8 9 10 11 11 11 12 12 12 13 13 13 13 12 12 13 13 13 13 14 14 14 15 15 17 18 20 21 22 24 25 26 26 26 26 26 27 27 26 25 23 22 24 25 24 22 22 22 23 22 22 22 24 27 28 29 32 34 35 37 39 40 41 38 35 35 33 31 32 32 31 30 31 33 36 38 38 37 36 35 34
6 7 8 10 12 13 14 14 14 14 14 14 15 15 15 15 15 15 15 15 15 15 15 15 16 16 16 17 18 19 21 22 23 24 25 26 27 28 28 28 27 27 27 25 23 22 22 24 25 23 22 23 24 24 24 24 24 26 28 30 32 34 35 38 40 40 40 39 36 34 33 32 33 34 32 31 31 33 35 38 39 39 38 37 35
11 12 13 15 16 16 17 17 16 16 16 16 16 17 17 17 17 17 17 18 18 18 18 18 19 19 20 20 21 21 22 23 23 24 25 26 27 28 29 30 30 29 28 26 23 22 21 23 24 25 25 25 24 23 23 25 26 27 28 29 31 34 35 38 40 40 40 38 36 34 33 33 33 34 34 33 33 34 36 38 40 41 40 39 37
15 16 16 17 17 17 18 17 17 18 18 18 18 18 18 18 18 19 19 19 20 20 21 21 21 22 22 22 23 23 24 24 24 25 26 26 26 27 28 29 30 31 30 28 26 23 21 21 22 24 26 26 26 24 23 24 26 27 29 29 30 32 34 37 39 38 39 38 35 36 37 35 34 35 36 34 34 35 36 38 40 42 44 42 38
16 17 17 17 18 17 18 18 19 19 19 20 19 19 19 19 20 20 20 21 21 22 22 22 23 23 23 23 24 24 25 25 26 26 27 28 28 28 28 29 29 30 31 30 28 27 24 22 22 21 23 26 27 26 25 26 26 25 26 28 29 31 33 36 39 38 38 38 38 38 37 36 36 37 37 36 36 37 37 38 40 43 45 42 39
16 17 18 18 19 18 18 18 19 20 20 20 20 20 20 20 21 21 21 22 23 23 23 24 24 24 24 25 25 26 26 27 29 29 29 29 29 29 29 28 28 29 29 29 28 27 26 25 24 22 21 23 26 27 27 29 29 28 26 26 28 30 32 35 39 39 37 37 39 38 37 37 38 39 39 38 38 39 39 39 41 43 43 42 41
15 17 20 21 20 19 19 19 20 20 20 20 20 20 20 21 21 22 22 23 24 24 24 24 25 25 26 26 27 27 28 29 30 31 31 31 31 31 30 29 28 28 28 28 28 26 25 25 25 24 23 23 25 27 28 29 30 31 30 28 27 29 32 34 37 39 38 38 39 38 37 38 40 41 42 41 40 39 39 41 42 41 41 42 43
15 17 20 21 21 20 20 20 20 20 21 21 21 21 21 21 21 22 23 23 24 24 24 24 25 26 26 27 28 28 28 28 28 29 30 31 31 31 31 30 29 28 28 29 29 28 26 24 23 23 24 25 26 27 29 30 31 32 32 31 29 28 31 35 36 36 38 40 41 40 39 41 42 42 42 41 40 39 40 42 42 41 42 43 44
15 17 19 21 21 21 21 21 21 21 21 21 21 21 21 21 22 22 23 24 24 24 24 25 26 27 27 28 28 29 29 28 28 28 28 29 30 31 31 31 30 30 29 29 29 29 29 26 24 23 23 25 26 27 29 30 32 33 34 34 33 31 30 33 36 37 37 40 42 41 41 42 42 41 41 39 39 40 41 42 42 43 45 44 43
17 19 21 21 22 22 22 22 22 21 21 21 21 21 22 22 23 23 24 24 25 25 26 26 27 28 29 30 30 30 30 29 28 28 28 28 30 31 31 31 31 31 31 30 30 30 30 29 27 25 23 23 25 27 28 30 31 34 35 35 36 35 33 32 34 37 38 40 42 43 43 42 40 41 42 41 39 41 42 43 44 46 47 46 45
21 21 22 23 23 23 22 22 22 21 21 21 21 21 22 23 23 24 24 25 25 26 27 28 29 30 31 31 31 31 31 31 31 30 28 28 29 31 31 32 32 33 33 33 32 31 30 31 30 28 26 24 25 27 28 29 30 32 34 35 36 37 37 35 34 34 36 38 41 42 42 40 39 41 43 41 39 40 42 44 45 46 47 47 45
23 23 23 23 23 23 22 22 22 22 21 21 21 21 22 23 23 24 24 25 26 27 29 30 30 31 31 31 32 32 32 32 33 32 31 29 29 31 32 33 33 33 34 34 34 32 31 31 31 31 29 28 28 28 29 30 31 31 33 34 35 35 37 38 37 35 35 36 39 41 41 40 39 40 41 41 40 40 42 45 46 47 46 43 43
23 23 24 24 23 23 22 22 22 22 22 22 22 23 23 23 23 23 24 25 27 29 30 31 31 32 32 32 32 33 33 33 33 33 32 31 30 30 32 33 34 34 34 34 35 35 33 32 32 33 33 31 30 30 31 32 32 33 33 35 35 35 36 37 38 37 37 37 39 41 42 41 40 39 38 39 40 39 40 42 43 44 44 42 44
23 23 23 23 23 23 23 23 23 23 23 23 23 23 23 23 23 23 24 25 28 30 32 33 33 33 34 34 35 35 35 34 34 34 34 33 31 31 32 34 35 35 35 35 36 36 35 34 34 35 35 34 32 31 32 34 33 33 34 35 36 37 37 36 36 37 37 37 39 40 41 41 40 39 37 37 38 38 39 41 42 42 43 45 47
22 22 22 22 22 22 22 22 23 23 23 23 24 24 24 24 23 23 24 25 28 31 34 35 35 35 35 36 37 38 38 38 38 37 36 35 33 32 33 35 36 37 38 37 38 38 37 35 35 37 38 37 36 34 34 36 36 33 33 34 36 38 38 36 36 37 37 36 36 37 38 38 39 40 37 34 34 35 38 42 44 44 45 46 46
21 21 20 20 20 21 21 22 22 22 23 24 24 25 25 24 24 23 24 26 28 31 34 35 35 36 36 37 38 39 40 40 40 40 38 36 34 33 34 35 37 38 39 39 40 41 39 36 34 37 39 40 39 38 37 38 38 36 35 34 35 38 38 35 35 37 37 36 35 34 34 35 35 38 37 34 33 34 37 41 43 44 47 48 46
20 20 19 18 18 19 20 21 22 22 23 24 24 25 25 25 24 23 24 25 28 30 32 34 35 36 37 38 39 40 41 42 42 41 39 37 35 34 34 36 37 39 41 41 41 42 42 38 34 35 38 40 40 39 38 38 39 39 39 37 36 37 35 33 34 36 36 36 35 32 32 33 33 35 37 35 34 36 37 39 41 43 46 47 46
18 18 17 17 17 17 18 19 21 21 22 23 23 24 25 24 23 23 24 25 27 29 31 33 35 36 38 39 40 40 41 43 43 41 39 37 35 34 34 36 37 39 40 42 43 43 43 40 35 33 36 39 40 39 36 35 36 38 39 39 38 35 32 31 33 34 33 35 34 30 29 30 32 35 37 35 35 36 37 39 41 43 45 46 46
14 16 16 15 15 16 17 17 19 20 20 21 22 23 24 24 24 24 24 25 26 28 30 32 33 36 38 40 41 41 41 43 44 41 38 38 36 35 35 36 36 37 38 40 42 43 42 41 37 33 33 36 38 37 34 32 32 34 35 37 37 32 29 30 32 31 31 32 33 30 27 27 30 34 37 37 37 38 38 39 39 40 41 43 44
12 13 14 15 14 14 15 16 17 18 18 19 21 22 23 24 24 24 24 25 26 28 30 32 33 35 37 40 42 43 43 44 44 41 39 38 37 36 36 35 35 36 38 39 40 41 40 39 37 33 30 32 34 34 32 29 29 29 30 32 34 29 24 26 28 27 26 28 30 30 27 26 28 31 35 37 38 39 39 38 38 38 39 40 41
12 12 12 13 13 13 13 14 15 16 16 18 19 21 22 23 23 24 25 25 27 29 31 32 33 35 37 39 42 44 45 44 44 41 39 38 37 36 35 34 34 35 36 38 39 39 38 37 35 32 29 28 30 31 30 28 26 25 25 26 28 25 19 20 22 21 22 25 28 29 27 27 29 31 34 36 38 39 39 39 38 38 38 38 39
13 13 12 11 11 11 11 12 13 14 15 16 18 20 21 22 22 24 25 26 27 29 31 33 35 37 39 41 43 45 46 45 43 41 39 37 36 36 36 35 34 34 35 36 36 36 36 35 34 32 30 29 28 29 29 29 27 24 23 21 19 16 12 11 14 16 19 21 25 27 29 30 31 32 34 35 36 36 37 38 38 37 37 38 39
13 13 11 10 9 9 9 10 12 14 14 15 16 19 20 21 22 24 25 26 28 30 31 33 35 37 39 42 43 45 46 45 43 41 39 36 35 36 36 35 34 35 34 34 34 33 33 34 33 32 32 32 32 31 30 30 29 27 24 21 17 13 7 1 6 10 12 14 16 21 26 28 30 32 33 32 33 34 34 34 34 35 36 38 40
11 11 10 8 8 7 7 8 10 13 13 14 15 18 19 20 21 23 24 25 27 29 31 33 35 37 39 41 43 45 46 45 43 41 39 36 35 36 37 36 35 35 34 33 33 33 33 34 34 34 35 35 35 36 35 33 31 29 28 27 25 23 19 13 9 10 10 11 11 11 12 14 16 18 19 20 25 31 31 30 31 32 33 35 37
10 10 9 8 7 6 5 7 9 11 13 13 15 16 18 19 20 22 24 25 26 28 30 33 35 36 38 40 41 44 44 43 42 40 37 35 35 35 37 37 36 36 36 35 34 34 35 35 36 36 36 36 37 38 38 38 37 35 33 32 31 29 27 23 19 19 19 17 17 16 15 13 13 10 7 8 12 16 16 18 20 21 23 25 28
8 8 7 6 6 5 5 5 7 10 11 12 14 15 17 18 20 21 23 24 25 27 29 32 33 35 36 38 40 42 43 41 39 37 34 33 33 35 37 38 36 37 38 36 34 33 34 36 38 39 39 40 40 40 40 42 42 40 38 36 33 30 27 25 24 25 24 22 21 21 20 19 19 17 15 13 13 13 11 11 11 10 11 14 17
7 7 6 5 5 5 4 4 5 8 10 11 13 15 17 18 19 20 21 23 24 25 27 30 31 32 34 35 37 41 41 37 35 33 31 30 31 33 35 35 34 34 36 36 34 35 36 38 41 42 42 42 43 43 43 43 43 42 41 39 37 34 31 29 28 27 25 25 24 23 22 22 22 20 17 14 14 14 12 10 9 9 7 8 12
7 7 6 4 4 5 4 3 4 6 9 10 13 15 17 17 18 19 20 21 22 23 25 27 30 31 32 32 34 37 37 33 31 31 30 28 28 30 32 31 30 31 33 35 36 37 38 40 42 43 42 42 43 43 43 43 43 43 42 41 39 37 34 33 31 28 25 26 27 27 26 26 25 22 18 15 15 16 14 12 10 10 11 11 15
5 5 5 4 5 4 3 3 4 6 9 11 13 14 15 16 17 18 19 20 21 21 23 25 27 29 30 31 32 34 35 31 29 31 30 27 27 29 30 29 29 30 32 35 38 40 40 41 41 41 41 42 42 42 42 42 42 42 41 41 40 38 36 33 31 28 26 25 25 26 26 28 28 27 25 22 20 19 18 18 18 18 19 20 22
6 5 5 5 5 4 3 3 4 5 9 12 12 13 14 15 16 17 18 19 19 20 21 23 25 27 28 29 31 34 35 31 29 30 30 27 26 28 28 28 28 30 31 34 37 39 40 40 40 39 40 40 40 41 41 41 41 40 40 40 39 37 36 34 31 29 27 26 25 25 24 23 23 24 25 25 26 26 26 27 28 29 30 30 29
6 6 5 5 5 4 3 5 5 6 9 11 10 10 12 13 15 16 17 17 18 19 20 22 24 25 26 28 30 33 34 31 28 29 30 27 26 27 27 26 26 29 31 34 36 36 38 39 38 37 37 37 37 39 40 40 39 38 38 38 37 36 34 32 31 30 29 27 25 24 24 22 21 20 20 20 21 23 24 25 25 26 27 28 27
5 6 6 5 5 4 5 6 6 6 8 9 10 10 11 12 13 14 15 16 17 18 19 21 22 24 25 27 29 32 33 31 27 26 28 28 26 26 27 26 26 27 30 33 34 35 36 37 37 35 35 35 35 36 38 39 38 37 37 36 35 34 33 32 31 31 30 28 26 23 21 20 19 19 18 16 16 16 17 17 17 17 19 20 21
5 7 7 6 5 4 5 6 7 7 8 8 9 10 10 11 12 13 14 16 17 18 19 20 22 23 24 26 28 31 33 31 27 24 25 26 25 25 26 28 28 29 30 31 32 33 34 35 35 34 34 34 35 35 36 36 36 36 36 36 34 33 33 33 33 31 30 29 28 25 22 20 18 17 16 15 14 14 15 15 15 17 20 22 24
6 8 8 6 4 3 4 4 6 7 7 7 8 9 9 10 11 12 13 15 16 17 18 19 21 22 23 25 27 29 31 31 27 24 23 23 23 24 26 28 29 28 29 29 30 31 32 33 33 33 33 34 35 35 35 35 34 34 34 35 34 33 32 32 32 31 30 29 28 27 26 24 22 20 20 20 18 17 16 16 16 18 20 21 22
6 7 7 5 3 3 3 2 3 5 6 6 7 8 9 9 10 11 13 15 16 16 17 18 19 20 21 23 25 28 30 29 26 24 23 22 21 22 24 25 26 26 27 28 28 29 30 31 31 31 32 32 33 33 34 34 34 33 33 33 33 33 32 31 31 30 30 28 28 27 27 26 25 23 23 22 21 20 19 18 17 17 17 17 18
6 8 7 5 3 3 2 1 2 4 5 4 5 7 8 7 8 9 11 14 15 15 15 16 18 19 21 22 24 26 27 27 25 25 25 24 23 22 22 23 24 25 25 25 26 26 28 29 29 30 30 30 30 31 32 33 33 33 33 32 31 31 31 30 30 29 29 27 27 27 27 27 26 25 24 24 24 23 22 20 19 18 17 16 16
7 8 7 5 3 2 1 1 1 3 3 2 3 6 7 7 7 8 10 12 14 14 14 14 16 18 20 21 22 23 25 26 27 27 27 26 24 23 22 22 22 23 23 24 24 25 26 27 28 28 28 28 28 29 29 30 30 30 30 31 30 30 30 30 30 29 28 27 26 25 26 26 25 24 24 25 25 24 22 20 19 18 17 17 16
9 8 7 5 2 0 1 1 0 2 1 1 2 5 6 7 8 7 8 11 13 12 12 13 14 17 19 19 20 21 23 25 27 28 28 27 25 24 23 22 22 22 22 22 23 24 25 25 26 26 26 26 26 27 27 28 28 28 27 28 28 28 28 28 29 28 27 26 24 24 25 25 24 23 22 23 24 23 22 20 18 17 17 16 16
10 9 7 6 4 2 2 2 1 0 2 2 3 5 5 7 8 6 8 11 12 11 12 12 13 15 18 18 18 19 21 23 26 27 28 28 26 24 23 22 21 21 21 22 22 24 24 24 24 24 25 24 24 24 25 25 26 27 26 25 25 25 25 26 27 27 26 25 23 23 24 24 24 23 23 22 22 21 20 19 18 17 17 16 15
11 10 9 8 6 4 3 2 2 2 4 3 4 4 5 6 6 6 8 11 12 12 12 12 12 14 16 17 17 17 18 21 23 25 26 27 27 25 24 23 21 20 20 21 22 23 24 24 23 23 23 22 23 23 23 23 24 25 25 25 23 22 23 24 25 25 25 24 23 22 22 22 22 22 22 21 21 20 19 18 17 16 15 15 14
12 11 10 9 8 5 3 3 3 4 5 5 4 4 4 5 5 5 8 11 12 13 12 12 12 13 15 16 16 16 16 19 20 22 24 26 26 26 26 25 23 20 19 19 21 23 23 23 23 22 21 21 22 23 23 22 22 22 23 24 23 21 20 21 22 23 23 23 23 22 21 21 21 21 20 20 19 18 17 15 14 13 13 12 12
13 11 10 10 9 6 4 3 5 6 6 5 4 4 5 4 3 5 8 10 12 13 13 11 11 13 14 15 15 15 15 17 19 20 22 23 24 25 26 26 25 23 20 19 20 21 22 22 22 21 20 20 21 21 22 22 21 21 21 22 21 19 18 18 20 21 20 20 20 20 20 19 18 18 18 18 17 16 15 13 11 10 11 11 11
13 12 10 11 10 8 5 5 6 8 7 5 3 3 5 4 4 5 7 9 11 13 13 12 12 13 13 14 15 15 15 16 17 18 20 21 23 24 24 25 25 25 23 21 20 20 20 21 21 21 20 20 20 20 21 21 21 21 21 20 20 18 16 16 16 17 17 17 17 17 17 17 16 15 15 15 14 14 13 12 10 8 8 9 9
13 12 10 10 11 9 7 6 8 9 7 5 4 4 5 5 5 6 8 9 10 12 13 13 13 13 14 14 15 15 15 15 16 17 18 19 21 22 23 23 24 24 24 24 22 20 19 19 20 20 20 20 19 19 20 20 20 20 20 19 19 17 15 13 12 12 13 13 14 14 14 15 15 14 13 12 11 11 10 9 8 7 6 6 6
14 12 10 9 10 10 8 7 8 9 8 7 7 6 6 6 6 8 8 9 10 11 13 14 14 13 14 15 15 15 15 15 15 15 16 17 19 20 21 22 22 23 23 24 23 22 20 18 18 18 18 18 18 18 18 19 20 19 19 19 18 16 15 12 10 9 9 10 11 11 11 12 13 13 13 12 11 9 8 7 7 6 5 4 4
14 13 11 10 10 10 10 9 9 9 9 8 8 7 7 7 7 8 9 10 10 11 12 13 14 14 14 15 16 15 15 15 14 14 14 16 17 18 19 20 21 21 22 23 23 22 20 18 16 16 16 16 17 18 18 19 19 19 20 20 19 17 15 13 11 9 7 7 8 9 9 10 11 12 12 12 10 8 7 7 7 6 5 4 4
14 15 13 11 11 12 11 10 10 10 10 10 9 9 9 9 8 9 10 11 11 11 11 12 13 14 14 15 16 16 15 14 14 13 13 14 15 16 17 17 18 19 20 21 21 21 19 17 15 14 15 16 17 18 19 20 19 19 20 21 20 19 17 14 12 10 7 6 6 7 7 8 9 10 11 11 9 7 6 6 6 6 5 4 4
14 15 15 14 13 13 13 13 12 11 11 12 12 11 10 10 10 10 11 12 12 11 11 11 12 13 13 14 16 17 16 14 13 13 12 12 13 14 14 15 16 17 18 19 19 19 18 17 15 14 14 15 16 18 19 20 20 20 20 21 21 20 18 16 14 11 8 6 5 5 6 7 8 8 9 10 9 7 5 3 3 3 4 3 2
14 15 16 16 16 16 15 15 14 13 13 13 13 13 13 12 12 12 13 13 13 12 11 11 11 12 12 13 16 17 16 14 13 13 12 12 12 12 12 14 15 15 16 17 17 17 17 16 14 13 13 14 15 16 17 18 19 20 20 20 20 20 19 18 16 13 11 8 7 6 6 7 7 8 8 9 9 8 6 4 3 3 3 3 2
Wind_Direction
74 69 71 67 55 56 52 45 40 35 35 35 28 22 15 9 6 2 356 353 354 355 355 356 356 354 351 347 344 343 342 340 337 336 335 334 333 331 328 326 321 315 308 298 288 282 280 281 283 286 287 284 282 283 282 277 271 268 266 264 260 256 253 251 251 254 255 253 253 251 247 248 248 246 244 239 233 229 226 226 226 226 226 226 226
76 67 62 56 48 51 52 51 50 46 45 44 40 34 29 26 24 15 6 4 4 2 2 2 1 358 354 350 349 348 347 344 341 339 338 337 336 335 333 331 329 325 321 314 302 288 278 275 279 284 286 284 282 281 280 279 275 271 268 266 263 259 255 252 251 253 253 250 249 249 247 246 246 245 242 238 234 231 227 225 224 224 225 225 225
91 82 69 66 64 64 64 62 60 55 52 48 42 39 38 36 33 28 21 19 15 11 9 7 4 1 356 352 349 348 348 347 344 342 341 339 337 336 335 334 332 329 326 322 315 303 287 275 274 280 283 281 279 278 277 277 275 273 270 267 265 264 261 256 252 252 252 249 245 246 246 245 245 244 242 239 236 233 229 226 225 224 223 224 223
100 95 89 85 80 76 73 70 66 61 56 52 49 46 45 43 40 37 33 30 26 23 19 15 12 9 4 1 356 353 352 350 348 346 344 343 341 339 337 336 335 333 330 326 320 311 298 283 273 273 279 281 278 277 277 278 278 276 273 269 265 265 264 260 255 253 253 249 244 247 247 245 245 245 243 240 236 234 231 227 226 225 224 223 222
103 97 91 84 80 76 74 72 69 65 61 59 57 54 50 47 44 41 38 35 32 30 27 23 20 17 14 11 7 3 360 356 354 352 350 347 345 342 340 338 337 337 334 331 326 317 307 295 281 272 275 281 281 280 280 281 282 281 279 274 268 267 265 262 257 254 252 247 244 248 250 245 243 244 242 238 234 233 231 228 227 226 225 222 220
98 91 85 81 78 76 74 72 70 67 66 64 61 57 53 50 47 45 42 39 36 33 30 28 25 23 20 16 12 9 5 2 359 357 355 352 349 346 343 339 339 339 338 336 333 327 318 306 293 280 276 279 282 281 278 278 279 280 281 279 275 270 266 262 258 253 250 247 245 246 247 244 241 240 239 235 232 232 231 229 228 228 226 223 219
93 85 80 80 80 78 76 74 71 70 69 66 62 58 55 52 49 47 44 41 39 35 33 30 27 25 22 19 16 13 9 6 3 1 358 356 353 351 347 343 340 339 340 341 339 334 328 319 308 295 283 280 281 279 276 273 274 275 276 280 280 275 268 264 260 253 247 245 244 243 244 244 241 238 236 234 232 232 232 229 228 228 227 224 218
92 83 79 80 82 82 81 78 75 73 71 67 64 60 57 54 51 49 45 42 39 35 33 30 27 25 22 19 17 14 12 11 8 5 2 359 357 354 351 347 343 339 339 341 341 338 334 327 319 310 296 285 280 278 276 274 274 273 271 275 281 280 274 266 257 250 246 244 244 244 243 244 241 237 234 230 227 227 229 231 230 229 229 225 220
95 87 82 82 83 84 84 82 79 77 72 69 66 62 59 56 53 51 47 43 40 36 32 28 24 22 20 17 15 13 13 13 12 8 4 1 359 356 353 351 347 343 339 338 339 339 337 331 325 318 309 296 283 277 274 273 274 274 271 270 275 279 279 272 258 249 246 243 243 244 244 242 240 235 231 229 227 227 230 232 230 230 232 229 222
99 92 87 84 84 85 85 84 81 78 74 71 68 65 62 59 55 52 49 45 42 38 34 30 26 23 19 17 14 12 11 11 11 8 5 2 360 357 354 352 350 347 343 340 338 337 336 333 328 321 314 305 292 281 274 270 269 270 269 268 267 270 275 274 264 254 247 243 243 244 242 239 238 235 232 232 232 231 231 232 230 230 231 227 220
100 95 92 89 87 85 84 82 81 78 75 73 70 67 63 59 56 53 50 47 43 39 36 33 29 25 21 19 16 14 12 9 7 5 3 2 1 358 355 354 353 351 348 345 341 339 336 334 331 326 318 311 303 291 282 275 271 268 267 266 263 262 264 268 266 259 250 245 243 242 239 237 238 237 236 236 234 231 232 234 233 230 229 225 221
102 99 95 91 89 86 83 81 79 77 75 72 69 66 62 59 55 51 48 45 41 38 35 31 28 24 21 19 17 15 13 10 7 4 2 1 1 360 358 356 354 353 351 349 346 343 339 336 334 332 326 320 313 305 295 284 276 272 269 268 265 261 258 259 262 261 256 248 242 239 239 240 240 239 239 238 236 232 233 235 234 231 229 228 228
104 100 94 89 87 85 82 80 78 75 73 69 66 63 59 55 51 47 44 41 37 34 31 27 25 23 20 19 17 15 13 10 7 4 2 1 0 360 360 358 357 355 354 351 348 346 343 340 337 335 332 328 321 315 308 297 286 277 272 270 267 263 258 255 255 257 260 256 247 242 242 242 239 240 241 241 239 235 232 232 232 230 230 231 232
103 97 91 87 84 82 81 80 78 75 72 67 63 59 55 51 48 44 40 37 34 31 28 25 23 22 21 19 18 15 13 11 9 5 1 0 360 359 0 0 359 358 356 353 351 348 345 343 341 339 336 334 330 325 318 309 300 290 282 277 272 267 262 257 253 252 255 257 254 251 250 248 246 246 246 244 242 238 234 233 231 230 232 233 233
100 94 89 85 81 79 78 77 76 73 69 65 60 57 53 50 47 42 38 36 33 30 27 24 23 23 22 20 18 17 14 12 10 6 2 360 359 359 0 0 359 359 358 356 354 351 348 346 345 343 340 337 334 331 326 318 309 301 294 287 280 274 266 261 257 253 251 252 253 255 255 254 253 252 249 245 243 241 239 237 236 236 235 233 231
99 93 89 85 79 76 74 73 72 69 65 62 59 56 53 50 47 43 40 38 35 31 28 26 25 24 23 21 20 18 16 14 12 9 4 1 359 358 359 0 360 360 359 358 357 355 352 349 348 346 342 339 335 333 330 324 316 307 299 292 286 280 272 264 260 257 254 252 251 252 254 254 253 251 247 242 241 241 238 234 234 234 231 227 227
99 94 90 86 80 74 70 69 68 66 63 60 57 55 52 49 47 45 42 40 36 32 29 27 26 24 23 21 19 17 16 15 14 11 7 4 1 359 359 0 1 1 0 360 360 358 356 355 351 347 345 343 339 336 333 328 321 314 306 296 288 282 276 269 263 259 257 256 254 253 253 254 255 254 248 239 233 234 234 231 231 231 227 223 224
98 94 92 88 81 74 68 65 64 62 59 57 54 51 49 48 46 46 43 39 35 32 29 27 25 24 23 21 19 16 15 14 13 11 9 6 3 2 1 0 2 2 1 0 0 360 358 357 354 350 348 346 342 338 335 331 326 320 313 303 291 283 278 273 267 262 260 258 257 254 251 252 253 252 250 243 234 229 229 231 232 230 226 223 223
98 95 94 90 83 74 68 63 59 55 52 51 50 48 46 46 45 44 41 37 34 31 28 27 25 24 23 22 19 17 15 14 12 10 10 8 5 4 3 1 2 3 2 1 0 359 358 356 353 351 350 347 343 339 335 330 327 324 319 311 297 285 280 276 270 266 264 261 258 255 251 250 249 246 246 244 235 228 228 232 235 233 231 228 226
103 98 96 93 85 74 66 60 55 51 48 46 46 45 43 43 43 41 38 35 33 30 28 26 25 24 23 22 20 18 15 13 12 11 10 9 8 6 5 3 3 2 2 2 0 358 357 355 352 350 349 348 345 340 335 331 328 324 321 316 304 290 278 273 267 263 264 262 257 254 251 250 249 245 242 240 234 228 229 232 234 235 234 232 228
113 103 97 95 88 76 66 57 51 48 44 41 41 42 41 40 39 37 34 32 31 29 26 25 24 24 23 22 20 18 16 14 12 12 11 10 10 9 7 5 4 2 2 2 1 358 357 355 352 348 347 348 347 342 337 334 331 326 322 319 311 295 274 265 263 261 260 260 256 254 253 252 251 246 241 239 236 232 230 231 231 233 233 231 230
124 113 100 95 90 79 67 57 49 46 41 36 36 37 38 37 36 34 32 30 29 27 25 23 22 22 22 21 20 18 17 14 13 12 10 11 12 11 8 7 5 4 3 2 1 360 358 357 354 349 346 347 348 348 345 341 337 334 328 322 316 305 278 260 257 256 255 255 255 255 256 257 254 247 241 240 237 234 233 232 230 230 230 232 234
126 123 107 95 91 83 70 58 49 44 38 32 31 33 34 34 34 33 31 30 29 27 24 22 21 20 20 20 18 17 16 14 13 12 10 10 12 11 10 8 7 6 6 4 2 0 1 1 359 355 352 351 351 353 355 354 351 348 341 329 321 314 289 257 248 249 253 256 255 254 256 257 254 248 242 239 236 233 233 232 231 230 229 230 234
126 126 113 98 93 86 72 59 48 41 36 32 29 30 31 32 32 32 30 29 28 27 25 23 21 20 19 18 17 16 14 14 13 12 11 11 12 11 10 10 9 8 8 6 4 3 3 4 4 3 3 3 0 360 2 5 6 6 360 348 334 321 297 256 241 244 248 250 250 250 250 250 249 245 240 236 233 233 233 232 230 229 228 227 229
128 125 116 102 94 85 70 58 48 40 37 32 29 30 30 30 31 31 30 29 27 27 26 23 21 19 18 17 16 14 13 13 13 12 11 11 12 10 9 10 10 10 10 9 8 7 8 8 9 10 13 14 13 12 11 11 15 19 20 17 14 10 10 143 196 209 215 220 229 236 239 239 239 235 231 226 224 226 232 234 231 227 226 225 225
131 124 115 103 94 84 64 52 47 42 38 33 31 30 29 28 29 29 29 29 27 26 24 22 20 18 16 16 15 13 12 12 12 12 11 11 11 10 10 11 11 11 13 13 11 11 13 14 14 16 19 21 22 22 21 19 19 24 32 37 40 40 43 61 101 125 134 148 164 182 200 210 214 217 221 220 212 211 220 230 230 224 222 222 222
131 121 113 100 92 84 63 50 47 42 39 35 32 30 28 26 26 27 27 28 27 25 23 21 18 16 15 14 14 13 12 11 12 13 12 10 10 10 10 12 12 13 15 16 14 14 17 18 19 20 22 23 24 25 26 26 25 27 33 41 49 52 52 57 73 87 93 103 116 122 128 140 144 139 144 171 177 179 193 212 214 209 210 215 214
140 128 118 107 95 81 63 55 49 41 38 37 33 30 27 23 22 24 25 26 25 23 22 20 18 16 14 12 12 11 11 12 13 12 11 10 9 9 9 9 12 14 15 16 17 18 19 21 21 22 23 24 24 25 26 27 28 29 31 36 45 53 58 60 66 73 78 86 100 110 115 120 124 123 124 129 123 113 127 155 159 157 177 192 189
158 146 133 120 104 87 69 63 52 38 37 36 31 28 25 20 18 20 22 23 23 21 20 19 19 18 15 12 11 9 9 11 13 12 11 9 9 8 7 7 11 15 16 17 19 19 22 25 25 24 24 24 25 25 25 25 28 29 30 32 37 44 52 57 60 63 67 72 82 94 99 102 111 120 123 121 117 116 127 139 130 124 145 164 156
154 148 142 126 104 89 78 75 59 35 31 32 27 23 22 18 17 19 21 22 22 21 19 18 17 17 15 13 12 9 8 9 12 13 12 9 8 8 7 7 12 17 17 19 21 21 23 26 27 26 26 26 26 26 25 25 27 29 31 32 33 37 44 51 56 61 64 66 70 79 83 84 92 104 111 115 124 133 141 150 152 153 162 166 152
170 156 149 129 105 98 94 84 55 28 27 27 21 19 22 22 21 22 22 20 20 21 21 19 17 15 13 13 12 11 9 10 12 14 14 12 10 10 8 9 16 20 20 22 25 25 24 25 25 25 26 26 27 27 27 27 28 29 31 33 34 35 38 43 49 56 61 64 67 71 74 75 78 83 88 95 104 113 122 132 139 139 140 143 138
191 180 159 133 118 122 115 78 51 32 27 22 17 22 31 31 28 26 23 19 19 22 22 21 19 16 12 11 11 11 11 11 12 14 16 16 14 14 13 15 20 22 22 26 29 28 26 25 24 23 24 26 26 27 28 28 29 30 32 34 35 36 37 40 44 49 54 60 63 65 66 68 70 72 76 82 89 93 97 103 109 111 112 114 113
175 181 168 143 137 137 106 75 62 40 27 23 26 38 43 37 32 29 25 20 20 22 22 21 20 17 13 11 12 11 11 10 11 14 17 18 17 17 18 19 20 21 21 25 28 27 26 25 24 23 24 25 25 26 27 27 28 31 34 35 37 38 39 40 42 45 48 54 59 63 66 67 68 71 73 76 81 84 84 87 92 96 98 99 98
148 175 174 164 158 137 91 72 61 40 35 44 53 55 48 38 33 30 26 22 22 22 20 20 20 18 14 12 12 12 11 10 11 13 17 21 23 21 20 21 22 22 21 22 24 25 25 24 23 23 23 24 24 25 26 27 28 30 34 36 37 39 41 42 44 45 46 48 52 57 63 68 69 71 73 73 71 70 69 69 73 80 86 90 93
130 160 170 170 161 127 92 76 58 43 46 56 55 47 38 32 30 28 25 23 22 21 19 19 19 18 15 13 13 12 10 10 11 12 14 20 23 21 21 22 23 23 23 22 22 23 25 25 24 24 24 24 24 23 24 27 28 29 31 34 36 38 41 43 46 48 49 50 52 53 57 64 67 67 67 68 65 63 65 69 76 86 93 97 99
121 150 161 161 147 116 99 84 57 42 40 40 35 29 25 19 16 19 22 21 20 18 18 19 18 17 14 13 13 12 10 10 12 12 12 14 16 15 17 20 20 19 20 20 19 20 23 24 25 25 25 24 24 23 23 25 27 29 30 32 34 36 39 42 45 48 51 54 55 55 57 60 64 69 72 72 71 70 72 77 84 91 94 96 98
121 143 151 144 123 104 101 96 58 36 33 34 28 21 15 6 0 4 13 17 17 15 16 18 19 17 15 13 14 13 11 11 14 14 12 12 11 11 12 15 15 15 16 18 18 19 21 22 23 24 24 23 24 25 24 24 26 28 29 31 33 36 38 40 42 45 49 53 56 58 59 60 61 65 70 73 73 73 74 76 80 84 87 91 94
132 141 147 143 120 92 87 112 65 31 31 39 29 14 5 357 349 349 1 11 14 12 13 16 18 17 15 14 14 13 11 11 14 16 16 15 14 12 11 12 15 15 13 14 16 18 18 19 20 20 21 23 25 27 27 26 26 26 26 28 32 35 37 39 40 41 45 49 53 56 59 62 64 66 67 69 69 69 70 71 74 78 82 86 90
161 157 159 158 137 82 48 172 66 27 34 57 24 8 3 355 345 341 352 6 11 10 10 14 17 16 15 14 14 13 12 13 16 19 19 17 16 15 13 12 14 14 11 8 10 12 13 14 15 16 19 22 26 28 28 26 25 24 24 25 28 31 34 37 38 38 39 42 46 51 54 58 61 64 65 65 64 63 64 65 69 73 77 80 84
183 180 181 184 181 354 312 217 192 29 74 193 325 346 353 354 347 340 349 4 9 8 7 11 14 14 14 15 14 13 13 16 19 20 20 19 17 16 14 12 12 12 10 6 5 6 6 7 9 12 15 20 24 26 26 25 25 24 23 23 26 29 33 35 37 38 38 38 42 46 49 51 54 57 59 60 60 59 58 59 64 69 74 78 84
202 199 200 206 216 263 284 239 231 187 195 233 300 320 333 345 347 342 352 6 10 6 3 4 8 11 14 15 14 13 14 16 19 20 20 20 18 16 14 12 10 8 7 3 2 3 4 4 5 8 11 15 19 21 23 25 25 24 23 22 24 28 32 35 36 37 38 39 40 43 46 47 50 53 56 58 59 59 57 57 61 68 73 78 85
215 214 216 220 225 245 271 265 241 212 218 255 307 322 330 343 349 350 2 12 12 3 357 358 2 7 13 15 13 12 12 13 16 19 19 20 19 18 16 13 8 6 4 1 359 1 3 5 6 7 10 13 14 15 17 20 22 23 24 23 22 25 30 34 35 35 37 40 41 42 45 47 50 53 56 57 58 58 57 57 62 69 76 82 88
218 219 221 222 225 237 262 266 234 219 237 273 303 321 334 345 352 359 9 15 12 3 356 354 356 3 10 13 13 11 10 10 12 14 16 17 18 17 18 16 12 8 3 0 360 1 3 6 8 9 10 11 11 11 11 12 14 17 21 23 23 23 26 31 34 35 36 39 40 40 42 45 47 50 53 54 55 57 57 58 64 72 77 81 86
217 218 218 218 222 233 253 254 231 229 250 278 295 313 329 337 346 357 4 9 9 4 0 358 359 2 7 10 10 10 9 8 8 8 11 14 15 14 15 16 16 13 7 1 1 2 5 7 9 9 9 10 10 10 10 9 8 11 14 17 20 22 23 25 29 32 33 34 35 36 37 40 41 43 45 46 50 53 56 58 64 72 77 78 80
216 220 222 221 225 232 248 258 246 242 252 271 288 311 326 330 329 338 350 358 2 3 3 5 8 8 6 5 7 7 6 4 3 2 4 8 10 11 11 12 13 14 11 6 4 6 7 8 9 8 6 7 9 11 12 11 9 9 10 12 15 17 19 21 24 26 28 30 30 29 29 32 34 35 35 36 39 44 51 57 65 74 83 84 81
218 223 226 227 228 233 246 260 255 248 250 261 277 301 324 330 326 329 338 346 352 356 0 5 10 11 7 4 3 3 2 359 357 357 358 1 4 7 8 8 9 11 11 9 8 9 9 8 7 6 5 5 7 8 10 10 10 10 10 10 11 13 15 17 18 19 22 25 26 26 23 23 26 29 28 27 27 30 38 50 62 70 82 95 97
223 226 230 233 233 234 241 252 253 247 248 260 277 297 316 324 323 325 330 335 340 346 353 0 5 7 7 4 1 359 358 355 352 351 353 354 358 1 3 3 5 7 8 8 9 10 10 10 10 10 9 8 8 6 6 9 12 13 12 10 9 10 13 15 15 15 15 17 19 21 19 17 20 24 25 26 29 31 36 48 61 67 75 91 105
227 228 232 236 237 236 239 246 249 247 250 260 275 293 307 312 314 316 319 325 331 336 344 354 360 1 1 2 360 356 354 352 350 349 349 350 353 357 359 0 1 2 3 5 8 10 11 13 15 16 15 13 13 12 11 13 16 17 16 14 11 10 11 13 12 11 10 9 11 13 12 12 14 15 17 22 31 39 45 54 64 72 79 91 104
231 230 233 239 242 242 241 243 247 251 256 262 270 284 295 300 301 303 306 313 321 326 333 344 351 353 355 357 357 353 349 347 347 347 347 348 350 352 355 358 359 359 359 0 3 8 11 13 15 17 17 17 19 20 20 21 21 20 20 19 16 12 10 10 10 9 5 359 358 360 1 3 6 9 10 14 18 24 33 49 61 69 76 87 102
236 236 240 245 247 245 242 241 244 252 258 260 264 274 284 286 287 290 296 302 309 316 324 333 340 345 349 353 353 350 346 343 341 342 344 345 347 349 352 355 357 358 357 357 358 2 8 11 12 14 16 16 18 20 21 21 20 19 20 20 18 15 12 10 9 6 0 349 339 337 339 344 350 354 357 0 1 357 357 11 36 49 56 64 85
238 241 247 250 248 245 245 243 242 246 252 257 262 270 277 280 280 283 288 294 301 307 314 322 329 337 343 347 348 348 344 339 336 338 339 340 342 344 347 350 352 353 354 354 353 356 1 6 9 11 11 9 9 11 14 15 14 15 16 16 15 15 15 13 10 6 360 349 335 321 315 320 328 334 339 344 346 341 331 319 313 323 340 345 329